EST,Max TemperatureF,Mean TemperatureF,Min TemperatureF,Max Dew PointF,MeanDew PointF,Min DewpointF,Max Humidity, Mean Humidity, Min Humidity, Max Sea Level PressureIn, Mean Sea Level PressureIn, Min Sea Level PressureIn, Max VisibilityMiles, Mean VisibilityMiles, Min VisibilityMiles, Max Wind SpeedMPH, Mean Wind SpeedMPH, Max Gust SpeedMPH,PrecipitationIn, CloudCover, Events, WindDirDegrees
2010-11-1,15,12,8,16,13,9,100,100,100,,,,0,0,0,53,39,55,0.20,,Fog-Snow,313
2010-11-2,26,17,10,12,3,-9,100,58,24,,,,0,0,0,45,30,53,0.10,0,Fog-Snow,359
2010-11-3,28,24,19,7,-6,-18,58,27,13,,,,,,,26,14,29,0.00,1,,252
2010-11-4,37,24,17,37,22,3,100,94,43,,,,0,0,0,55,32,61,0.04,3,Fog-Rain-Snow,160
2010-11-5,44,32,19,45,36,19,100,100,100,,,,0,0,0,55,38,61,0.63,,Fog-Rain,200
2010-11-6,26,22,17,21,15,10,100,74,54,,,,0,0,0,33,19,,0.00,5,Fog,336
2010-11-7,26,24,21,12,9,3,68,54,40,,,,,,,54,21,61,0.00,5,,25
2010-11-8,32,26,21,32,28,21,100,99,86,,,,0,0,0,67,49,75,0.00,2,Fog-Rain-Snow,50
2010-11-9,32,30,28,32,30,28,100,100,100,,,,0,0,0,52,37,58,0.04,6,Fog-Rain,37
2010-11-10,33,28,24,30,3,-15,100,41,15,,,,0,0,0,55,50,61,0.00,4,Fog,52
2010-11-11,35,30,26,0,-8,-18,25,18,11,,,,,,,43,34,47,0.00,0,,80
2010-11-12,44,40,37,23,8,-9,56,31,11,,,,,,,25,17,,0.00,1,,116
2010-11-13,41,38,35,14,7,-4,38,26,15,,,,,,,15,7,,0.00,1,,296
2010-11-14,39,34,30,28,12,3,93,43,26,,,,0,0,0,36,19,37,0.00,5,Fog,240
2010-11-15,30,28,26,28,25,14,100,89,51,,,,0,0,0,43,32,51,0.00,7,Fog,252
2010-11-16,30,28,26,30,26,16,100,93,55,,,,1,0,0,33,20,40,0.00,7,Fog-Snow,230
2010-11-17,32,26,17,32,28,18,100,100,100,,,,0,0,0,86,46,94,0.43,,Fog-Rain-Snow,215
2010-11-18,17,14,12,18,14,12,100,100,100,,,,0,0,0,101,72,109,0.09,,Fog-Snow,290
2010-11-19,12,6,3,10,3,-20,100,86,22,,,,0,0,0,53,42,61,0.29,4,Fog-Snow,297
2010-11-20,17,11,3,18,10,-13,100,95,34,,,,0,0,0,74,47,86,0.21,8,Fog-Snow,281
2010-11-21,19,10,1,3,-13,-26,100,37,14,,,,0,0,0,50,34,59,0.00,5,Fog-Snow,292
2010-11-22,35,25,17,36,28,9,100,99,68,,,,2,0,0,51,37,52,0.47,8,Fog-Rain-Snow,260
2010-11-23,39,30,17,39,34,18,100,100,93,,,,20,1,0,63,32,76,0.02,8,Fog-Rain,264
2010-11-24,15,8,0,16,3,-15,100,89,37,,,,0,0,0,77,65,89,0.11,2,Fog-Snow,298
2010-11-25,28,18,8,-6,-16,-29,40,23,8,,,,,,,71,51,84,0.00,5,Snow,313
2010-11-26,26,16,5,27,13,-24,100,93,12,,,,0,0,0,67,43,72,0.14,8,Fog-Rain-Snow,250
2010-11-27,8,3,-2,9,5,-2,100,99,85,,,,0,0,0,64,38,72,0.16,8,Fog-Snow,277
2010-11-28,10,6,1,10,6,-9,100,95,56,,,,0,0,0,54,50,63,0.03,2,Fog-Snow,302
2010-11-29,32,24,15,19,11,-6,74,57,33,,,,,,,34,25,,0.00,3,Snow,298
2010-11-30,32,26,23,32,20,-4,100,77,26,,,,0,0,0,41,33,46,0.00,5,Fog-Rain,196